Weather in Atlanta

United States     33°44′55″N   84°23′32″W
temp.,
°C
wind,
m/s
gust,
m/s
humid.,
%
clouds,
%
prec.,
mm/h
press.,
hPa
HPBL,
m
17 may, mon
mon1723:00+19s265339 0.0 1022165
02:00+17sse255715 0.0 1022159
05:00+16s2660100 0.0 1022196
08:00+17se235984 0.0 1023229
11:00+22sse343924 0.0 1023929
14:00+27sse443076 0.0 10222171
17:00+26s443158 0.0 10202278
20:00+24s364276 0.0 1021604
18 may, tue
tue1823:00+21se285360 0.0 1022259
02:00+19se41160100 0.0 1022519
05:00+17se3117199 0.0 1022536
08:00+18se41175100 0.0 1024506
11:00+23se5851100 0.0 10241176
14:00+27se563879 0.0 10232237
17:00+26se4640100 0.0 10211914
20:00+23ese485666 0.0 1022791
19 may, wed
wed1923:00+21ese4106378 0.0 1023724
02:00+19se4117158 0.0 1023628
05:00+17ese3108054 0.0 1023520
08:00+18ese487825 0.0 1026399
11:00+24ese57485 0.0 10261272
14:00+28ese563635 0.0 10242251
17:00+27ese4637100 0.0 10222031
20:00+25e5845100 0.0 1023972
20 may, thu
thu2023:00+22e410585 0.0 1025507
02:00+20ese411675 0.0 1025512
05:00+18ese310795 0.0 1025518
08:00+18ese48826 0.0 1027429
11:00+24ese575659 0.1 10281502
14:00+26ese464897 0.3 10271842
17:00+27se454172 0.3 10252232
20:00+24ese375547 0.3 1025675
21 may, fri
fri2123:00+21e23715 0.0 102773
02:00+19se39725 0.0 1027424
05:00+17ese287528 0.0 1028336
08:00+17e357317 0.0 1030331
11:00+24e464453 0.0 10301183
14:00+28ese45315 0.0 10281857
17:00+29ese44295 0.0 10262065
20:00+26ese35385 0.0 1026517